Weather History for Palmer, AK

Change the Weather History Date:

Wednesday, November 28, 2012

  Actual Average Record
Temperature  
Mean Temperature 4 °F -  
Max Temperature 10 °F 27 °F 54 °F (1976)
Min Temperature -2 °F 12 °F -17 °F (1990)
Degree Days  
Heating Degree Days 61    
Moisture  
Dew Point -2 °F    
Average Humidity 81    
Maximum Humidity 87    
Minimum Humidity 73    
Precipitation  
Precipitation 0.00 in - - ()
Sea Level Pressure  
Sea Level Pressure 29.83 in    
Wind  
Wind Speed 2 mph (SE)    
Max Wind Speed 9 mph    
Max Gust Speed 22 mph    
Visibility 10 miles    
Events      
Averages and records for this station are not official NWS values.
T = Trace of Precipitation, MM = Missing Value Source: NWS Daily Summary

Daily Weather History Graph

Daily Weather History Graph

Search for Another Location

Airport:

Trip Planner

Search our weather history database for the weather conditions in past years. The results will help you decide how hot, cold, wet, or windy it might be!

Date:

Astronomy

Nov. 28, 2012 Rise Set
Actual Time 9:40 AM AKST 3:48 PM AKST
Civil Twilight 8:42 AM AKST 4:46 PM AKST
Nautical Twilight 7:44 AM AKST 5:44 PM AKST
Astronomical Twilight 6:51 AM AKST 6:37 PM AKST
Moon 4:08 PM AKST 9:48 AM AKST
Length of Visible Light 8h 04m
Length of Day
6h 07m
Full, 100% of the Moon is Illuminated
Nov 28
Full
Dec 6
Last Quarter
Dec 12
New
Dec 19
First Quarter
Dec 28
Full

Hourly Weather History & Observations

Time (AKST) Temp. Windchill Dew Point Humidity Pressure Visibility Wind Dir Wind Speed Gust Speed Precip Events Conditions
12:53 AM -2.0 °F - -7.1 °F 79% 30.00 in 10.0 mi Calm Calm - N/A   Clear
1:53 AM 1.0 °F - -2.9 °F 83% 29.98 in 10.0 mi Calm Calm - N/A   Clear
2:53 AM -0.0 °F -7.9 °F -4.0 °F 83% 29.97 in 10.0 mi Variable 3.5 mph - N/A   Clear
3:53 AM -2.0 °F - -6.0 °F 83% 29.95 in 10.0 mi Calm Calm - N/A   Clear
4:53 AM -0.0 °F - -4.0 °F 83% 29.94 in 10.0 mi Calm Calm - N/A   Clear
5:53 AM -2.0 °F - -7.1 °F 79% 29.92 in 10.0 mi Calm Calm - N/A   Clear
6:53 AM -2.0 °F - -7.1 °F 79% 29.91 in 9.0 mi Calm Calm - N/A   Clear
7:53 AM -2.0 °F - -7.1 °F 79% 29.89 in 10.0 mi Calm Calm - N/A   Clear
8:53 AM -2.9 °F -13.3 °F -6.0 °F 87% 29.91 in 10.0 mi Variable 4.6 mph - N/A   Clear
9:53 AM 1.9 °F - -2.9 °F 80% 29.88 in 10.0 mi Calm Calm - N/A   Clear
10:53 AM 1.0 °F -6.7 °F -2.0 °F 87% 29.87 in 10.0 mi Variable 3.5 mph - N/A   Clear
11:53 AM 1.0 °F -6.7 °F -4.0 °F 79% 29.86 in 10.0 mi South 3.5 mph - N/A   Clear
12:53 PM 5.0 °F -2.1 °F 1.9 °F 87% 29.84 in 10.0 mi South 3.5 mph - N/A   Clear
1:53 PM 8.1 °F -0.5 °F 5.0 °F 87% 29.81 in 10.0 mi South 4.6 mph - N/A   Clear
2:53 PM 10.0 °F 3.6 °F 5.0 °F 80% 29.79 in 10.0 mi Variable 3.5 mph - N/A   Clear
3:53 PM 6.1 °F - 1.0 °F 80% 29.76 in 10.0 mi Calm Calm - N/A   Clear
4:53 PM 5.0 °F - 1.0 °F 84% 29.75 in 10.0 mi Calm Calm - N/A   Clear
5:53 PM 8.1 °F -0.5 °F 3.0 °F 80% 29.75 in 10.0 mi East 4.6 mph - N/A   Clear
6:53 PM 6.1 °F -0.9 °F 1.0 °F 80% 29.73 in 10.0 mi Variable 3.5 mph - N/A   Clear
7:53 PM 7.0 °F -4.5 °F 1.0 °F 77% 29.72 in 10.0 mi Variable 6.9 mph - N/A   Clear
8:53 PM 3.9 °F -8.2 °F -0.9 °F 80% 29.71 in 10.0 mi NE 6.9 mph - N/A   Clear
9:53 PM 5.0 °F -4.1 °F 1.0 °F 84% 29.70 in 10.0 mi Variable 4.6 mph - N/A   Clear
10:53 PM 9.0 °F -4.2 °F 1.9 °F 73% 29.67 in 10.0 mi East 9.2 mph 21.9 mph N/A   Clear
11:53 PM 5.0 °F -6.9 °F -0.0 °F 80% 29.67 in 10.0 mi Variable 6.9 mph - N/A   Clear